TimeMDT,TemperatureF,Dew PointF,Humidity,Sea Level PressureIn,VisibilityMPH,Wind Direction,Wind SpeedMPH,Gust SpeedMPH,PrecipitationIn,Events,Conditions,WindDirDegrees,DateUTC
12:53 AM,25.0,21.9,88,30.09,10.0,ENE,3.5,-,N/A,,Clear,60,2012-10-19 06:53:00
1:53 AM,24.1,21.0,88,30.06,10.0,Calm,Calm,-,N/A,,Clear,0,2012-10-19 07:53:00
2:53 AM,23.0,21.0,92,30.05,10.0,Calm,Calm,-,N/A,,Clear,0,2012-10-19 08:53:00
3:53 AM,24.1,21.9,91,30.02,10.0,ENE,5.8,-,N/A,,Clear,60,2012-10-19 09:53:00
4:53 AM,25.0,23.0,92,29.99,10.0,ENE,8.1,-,N/A,,Clear,60,2012-10-19 10:53:00
5:53 AM,25.0,23.0,92,29.96,10.0,ENE,6.9,-,N/A,,Clear,70,2012-10-19 11:53:00
6:23 AM,24.8,21.2,86,29.89,10.0,ENE,6.9,-,N/A,,Partly Cloudy,70,2012-10-19 12:23:00
6:53 AM,24.1,23.0,96,29.95,9.0,ENE,6.9,-,N/A,,Partly Cloudy,70,2012-10-19 12:53:00
7:53 AM,25.0,23.0,92,29.92,8.0,ENE,8.1,-,N/A,,Clear,70,2012-10-19 13:53:00
8:53 AM,28.0,26.1,92,29.89,8.0,ENE,10.4,-,N/A,,Clear,70,2012-10-19 14:53:00
9:53 AM,30.9,28.9,92,29.86,10.0,NE,8.1,-,N/A,,Clear,50,2012-10-19 15:53:00
10:53 AM,39.0,32.0,76,29.80,10.0,ENE,11.5,-,N/A,,Clear,70,2012-10-19 16:53:00
11:53 AM,46.9,34.0,61,29.77,10.0,ENE,10.4,-,N/A,,Clear,70,2012-10-19 17:53:00
12:53 PM,55.0,32.0,42,29.71,10.0,ESE,3.5,-,N/A,,Clear,110,2012-10-19 18:53:00
1:53 PM,61.0,28.0,29,29.67,10.0,SW,5.8,-,N/A,,Clear,220,2012-10-19 19:53:00
2:53 PM,61.0,30.0,31,29.65,10.0,WSW,4.6,-,N/A,,Clear,240,2012-10-19 20:53:00
3:53 PM,62.1,30.9,31,29.63,10.0,West,3.5,-,N/A,,Clear,280,2012-10-19 21:53:00
4:53 PM,60.1,33.1,36,29.62,10.0,Calm,Calm,-,N/A,,Clear,0,2012-10-19 22:53:00
5:53 PM,57.0,33.1,40,29.61,10.0,East,3.5,-,N/A,,Clear,90,2012-10-19 23:53:00
6:53 PM,48.9,32.0,52,29.61,10.0,Calm,Calm,-,N/A,,Clear,0,2012-10-20 00:53:00
7:53 PM,43.0,32.0,65,29.62,10.0,Calm,Calm,-,N/A,,Clear,0,2012-10-20 01:53:00
8:53 PM,41.0,33.1,73,29.60,10.0,WNW,3.5,-,N/A,,Clear,300,2012-10-20 02:53:00
9:53 PM,41.0,34.0,76,29.59,10.0,Calm,Calm,-,N/A,,Clear,0,2012-10-20 03:53:00
10:53 PM,44.1,35.1,71,29.57,10.0,North,3.5,-,N/A,,Clear,10,2012-10-20 04:53:00
11:53 PM,41.0,35.1,79,29.56,10.0,Calm,Calm,-,N/A,,Clear,0,2012-10-20 05:53:00